sat.trackr.live / text

‹ back to catalog

STARLINK-32100

NORAD 59686 · 2024-086E

PAYLOAD ACTIVE UNKNOWN

§ Identity

Operator
Country
US
Launch date
2024-05-08
Launch site
AFETR
Launch vehicle
Mass (kg)
RCS (m²)

Purposes: comms

External: N2YO · Heavens-Above · Gunter

§ Orbital elements

Epoch: 2026-09-21T14:53:01.556160Z

Period
94.27 min
Inclination
43.0049°
Eccentricity
0.0001148
Mean motion
15.27578207 rev/d
Perigee alt
482.3 km
Apogee alt
483.8 km
Semi-major
6,861.2 km
B*
1.3568e-5
RAAN
15.2806°
Arg perigee
271.0702°
Mean anomaly
89.0018°
Rev number
13,428

§ Raw data

STARLINK-321001 59686U 24086E   26264.62015690  .00000111  00000+0  13568-4 0  99922 59686  43.0049  15.2806 0001148 271.0702  89.0018 15.27578207134289

JSON: /api/v1/satellites/59686 · /tle

For live sub-satellite position, see the globe view (requires WebGL).

§ Visibility from observer

Set your observer location to see the next 7 days of passes ≥ 10°. The values pass through the URL so the page stays shareable.

No JS? Fill the form by hand. The geolocation button needs JavaScript.